owner,sensor,date,latitude,longitude,air_pressure(mBar),qcFlag 
TABS,ioos:station:wmo:42045:1,2010-04-01T00:00:00Z,26.2168,-96.4998,1014.01,11111222 
TABS,ioos:station:wmo:42045:1,2010-04-01T00:30:00Z,26.2168,-96.4998,1013.91,11111222 
TABS,ioos:station:wmo:42045:1,2010-04-01T01:00:00Z,26.2168,-96.4998,1013.7,11111222 
TABS,ioos:station:wmo:42045:1,2010-04-01T01:30:00Z,26.2168,-96.4998,1013.96,11111222 
TABS,ioos:station:wmo:42045:1,2010-04-01T02:00:00Z,26.2168,-96.4998,1014.27,11111222 
TABS,ioos:station:wmo:42045:1,2010-04-01T02:30:00Z,26.2168,-96.4998,1014.69,11111222 
TABS,ioos:station:wmo:42045:1,2010-04-01T03:00:00Z,26.2168,-96.4998,1014.91,11111222 
TABS,ioos:station:wmo:42045:1,2010-04-01T03:30:00Z,26.2168,-96.4998,1015.17,11111222 
TABS,ioos:station:wmo:42045:1,2010-04-01T04:00:00Z,26.2168,-96.4998,1015.14,11111222 
TABS,ioos:station:wmo:42045:1,2010-04-01T04:30:00Z,26.2168,-96.4998,1015.54,11111222 
TABS,ioos:station:wmo:42045:1,2010-04-01T05:00:00Z,26.2168,-96.4998,1015.22,11111222 
TABS,ioos:station:wmo:42045:1,2010-04-01T05:30:00Z,26.2168,-96.4998,1015.42,11111222 
TABS,ioos:station:wmo:42045:1,2010-04-01T06:00:00Z,26.2168,-96.4998,1015.47,11111222 
TABS,ioos:station:wmo:42045:1,2010-04-01T06:30:00Z,26.2168,-96.4998,1015.42,11111222 
TABS,ioos:station:wmo:42045:1,2010-04-01T07:00:00Z,26.2168,-96.4998,1015.26,11111222 
TABS,ioos:station:wmo:42045:1,2010-04-01T07:30:00Z,26.2168,-96.4998,1015.01,11111222 
TABS,ioos:station:wmo:42045:1,2010-04-01T08:00:00Z,26.2168,-96.4998,1014.45,11111222 
TABS,ioos:station:wmo:42045:1,2010-04-01T08:30:00Z,26.2168,-96.4998,1014.31,11111222 
TABS,ioos:station:wmo:42045:1,2010-04-01T09:00:00Z,26.2168,-96.4998,1014.05,11111222 
TABS,ioos:station:wmo:42045:1,2010-04-01T09:30:00Z,26.2168,-96.4998,1013.86,11111222 
TABS,ioos:station:wmo:42045:1,2010-04-01T10:00:00Z,26.2168,-96.4998,1013.89,11111222 
TABS,ioos:station:wmo:42045:1,2010-04-01T10:30:00Z,26.2168,-96.4998,1013.69,11111222 
TABS,ioos:station:wmo:42045:1,2010-04-01T11:00:00Z,26.2168,-96.4998,1013.71,11111222 
TABS,ioos:station:wmo:42045:1,2010-04-01T11:30:00Z,26.2168,-96.4998,1013.8,11111222 
TABS,ioos:station:wmo:42045:1,2010-04-01T12:00:00Z,26.2168,-96.4998,1013.79,11111222 
TABS,ioos:station:wmo:42045:1,2010-04-01T12:30:00Z,26.2168,-96.4998,1013.84,11111222 
TABS,ioos:station:wmo:42045:1,2010-04-01T13:00:00Z,26.2168,-96.4998,1013.92,11111222 
TABS,ioos:station:wmo:42045:1,2010-04-01T13:30:00Z,26.2168,-96.4998,1014.23,11111222 
TABS,ioos:station:wmo:42045:1,2010-04-01T14:00:00Z,26.2168,-96.4998,1014.13,11111222 
TABS,ioos:station:wmo:42045:1,2010-04-01T14:30:00Z,26.2168,-96.4998,1014.17,11111222 
TABS,ioos:station:wmo:42045:1,2010-04-01T15:00:00Z,26.2168,-96.4998,1014.14,11111222 
TABS,ioos:station:wmo:42045:1,2010-04-01T15:30:00Z,26.2168,-96.4998,1014.17,11111222 
TABS,ioos:station:wmo:42045:1,2010-04-01T16:00:00Z,26.2168,-96.4998,1014.23,11111222 
TABS,ioos:station:wmo:42045:1,2010-04-01T16:30:00Z,26.2168,-96.4998,1013.94,11111222 
TABS,ioos:station:wmo:42045:1,2010-04-01T17:00:00Z,26.2168,-96.4998,1013.68,11111222 
TABS,ioos:station:wmo:42045:1,2010-04-01T17:30:00Z,26.2168,-96.4998,1013.23,11111222 
TABS,ioos:station:wmo:42045:1,2010-04-01T18:00:00Z,26.2168,-96.4998,1012.98,11111222 
TABS,ioos:station:wmo:42045:1,2010-04-01T18:30:00Z,26.2168,-96.4998,1012.52,11111222 
TABS,ioos:station:wmo:42045:1,2010-04-01T19:00:00Z,26.2168,-96.4998,1011.92,11111222 
TABS,ioos:station:wmo:42045:1,2010-04-01T19:30:00Z,26.2168,-96.4998,1011.29,11111222 
TABS,ioos:station:wmo:42045:1,2010-04-01T20:00:00Z,26.2168,-96.4998,1010.87,11111222 
TABS,ioos:station:wmo:42045:1,2010-04-01T20:30:00Z,26.2168,-96.4998,1010.09,11111222 
TABS,ioos:station:wmo:42045:1,2010-04-01T21:00:00Z,26.2168,-96.4998,1009.94,11111222 
TABS,ioos:station:wmo:42045:1,2010-04-01T21:30:00Z,26.2168,-96.4998,1009.53,11111222 
TABS,ioos:station:wmo:42045:1,2010-04-01T22:00:00Z,26.2168,-96.4998,1009.27,11111222 
TABS,ioos:station:wmo:42045:1,2010-04-01T22:30:00Z,26.2168,-96.4998,1009.15,11111222 
TABS,ioos:station:wmo:42045:1,2010-04-01T23:00:00Z,26.2168,-96.4998,1009.09,11111222 
TABS,ioos:station:wmo:42045:1,2010-04-01T23:30:00Z,26.2168,-96.4998,1008.88,11111222 
TABS,ioos:station:wmo:42045:1,2010-04-02T00:00:00Z,26.2168,-96.4998,1008.83,11111222 
TABS,ioos:station:wmo:42045:1,2010-04-02T00:30:00Z,26.2168,-96.4998,1008.83,11111222 
TABS,ioos:station:wmo:42045:1,2010-04-02T01:00:00Z,26.2168,-96.4998,1008.65,11111222 
TABS,ioos:station:wmo:42045:1,2010-04-02T01:30:00Z,26.2168,-96.4998,1008.87,11111222 
TABS,ioos:station:wmo:42045:1,2010-04-02T02:00:00Z,26.2168,-96.4998,1009.12,11111222 
TABS,ioos:station:wmo:42045:1,2010-04-02T02:30:00Z,26.2168,-96.4998,1009.44,11111222 
TABS,ioos:station:wmo:42045:1,2010-04-02T03:00:00Z,26.2168,-96.4998,1009.6,11111222 
TABS,ioos:station:wmo:42045:1,2010-04-02T03:30:00Z,26.2168,-96.4998,1009.61,11111222 
TABS,ioos:station:wmo:42045:1,2010-04-02T04:00:00Z,26.2168,-96.4998,1009.0,11111222 
TABS,ioos:station:wmo:42045:1,2010-04-02T04:30:00Z,26.2168,-96.4998,1008.74,11111222 
TABS,ioos:station:wmo:42045:1,2010-04-02T05:00:00Z,26.2168,-96.4998,1008.77,11111222 
TABS,ioos:station:wmo:42045:1,2010-04-02T05:30:00Z,26.2168,-96.4998,1008.81,11111222 
TABS,ioos:station:wmo:42045:1,2010-04-02T06:00:00Z,26.2168,-96.4998,1008.6,11111222 
TABS,ioos:station:wmo:42045:1,2010-04-02T06:30:00Z,26.2168,-96.4998,1008.49,11111222 
TABS,ioos:station:wmo:42045:1,2010-04-02T07:00:00Z,26.2168,-96.4998,1008.33,11111222 
TABS,ioos:station:wmo:42045:1,2010-04-02T07:30:00Z,26.2168,-96.4998,1008.62,11111222 
TABS,ioos:station:wmo:42045:1,2010-04-02T08:00:00Z,26.2168,-96.4998,1007.98,11111222 
TABS,ioos:station:wmo:42045:1,2010-04-02T08:30:00Z,26.2168,-96.4998,1007.69,11111222 
TABS,ioos:station:wmo:42045:1,2010-04-02T09:00:00Z,26.2168,-96.4998,1007.09,11111222 
TABS,ioos:station:wmo:42045:1,2010-04-02T09:30:00Z,26.2168,-96.4998,1006.77,11111222 
TABS,ioos:station:wmo:42045:1,2010-04-02T10:00:00Z,26.2168,-96.4998,1006.51,11111222 
TABS,ioos:station:wmo:42045:1,2010-04-02T10:30:00Z,26.2168,-96.4998,1006.28,11111222 
TABS,ioos:station:wmo:42045:1,2010-04-02T11:00:00Z,26.2168,-96.4998,1006.66,11111222 
TABS,ioos:station:wmo:42045:1,2010-04-02T11:30:00Z,26.2168,-96.4998,1007.07,11111222 
TABS,ioos:station:wmo:42045:1,2010-04-02T12:00:00Z,26.2168,-96.4998,1006.75,11111222 
TABS,ioos:station:wmo:42045:1,2010-04-02T12:30:00Z,26.2168,-96.4998,1006.95,11111222 
TABS,ioos:station:wmo:42045:1,2010-04-02T13:00:00Z,26.2168,-96.4998,1007.5,11111222 
TABS,ioos:station:wmo:42045:1,2010-04-02T13:30:00Z,26.2168,-96.4998,1007.49,11111222 
TABS,ioos:station:wmo:42045:1,2010-04-02T14:00:00Z,26.2168,-96.4998,1007.97,11111222 
TABS,ioos:station:wmo:42045:1,2010-04-02T14:30:00Z,26.2168,-96.4998,1008.53,11111222 
TABS,ioos:station:wmo:42045:1,2010-04-02T15:00:00Z,26.2168,-96.4998,1008.8,11111222 
TABS,ioos:station:wmo:42045:1,2010-04-02T15:30:00Z,26.2168,-96.4998,1008.94,11111222 
TABS,ioos:station:wmo:42045:1,2010-04-02T16:00:00Z,26.2168,-96.4998,1008.55,11111222 
TABS,ioos:station:wmo:42045:1,2010-04-02T16:30:00Z,26.2168,-96.4998,1008.43,11111222 
TABS,ioos:station:wmo:42045:1,2010-04-02T17:00:00Z,26.2168,-96.4998,1008.74,11111222 
TABS,ioos:station:wmo:42045:1,2010-04-02T17:30:00Z,26.2168,-96.4998,1008.33,11111222 
TABS,ioos:station:wmo:42045:1,2010-04-02T18:00:00Z,26.2168,-96.4998,1007.7,11111222 
TABS,ioos:station:wmo:42045:1,2010-04-02T18:30:00Z,26.2168,-96.4998,1007.9,11111222 
TABS,ioos:station:wmo:42045:1,2010-04-02T19:00:00Z,26.2168,-96.4998,1007.3,11111222 
TABS,ioos:station:wmo:42045:1,2010-04-02T19:30:00Z,26.2168,-96.4998,1007.52,11111222 
TABS,ioos:station:wmo:42045:1,2010-04-02T20:00:00Z,26.2168,-96.4998,1007.6,11111222 
TABS,ioos:station:wmo:42045:1,2010-04-02T20:30:00Z,26.2168,-96.4998,1007.63,11111222 
TABS,ioos:station:wmo:42045:1,2010-04-02T21:00:00Z,26.2168,-96.4998,1007.36,11111222 
TABS,ioos:station:wmo:42045:1,2010-04-02T21:30:00Z,26.2168,-96.4998,1007.39,11111222 
TABS,ioos:station:wmo:42045:1,2010-04-02T22:00:00Z,26.2168,-96.4998,1007.67,11111222 
TABS,ioos:station:wmo:42045:1,2010-04-02T22:30:00Z,26.2168,-96.4998,1008.18,11111222 
TABS,ioos:station:wmo:42045:1,2010-04-02T23:00:00Z,26.2168,-96.4998,1008.23,11111222 
TABS,ioos:station:wmo:42045:1,2010-04-02T23:30:00Z,26.2168,-96.4998,1008.54,11111222 
TABS,ioos:station:wmo:42045:1,2010-04-03T00:00:00Z,26.2168,-96.4998,1008.64,11111222 
TABS,ioos:station:wmo:42045:1,2010-04-03T00:30:00Z,26.2168,-96.4998,1009.18,11111222 
TABS,ioos:station:wmo:42045:1,2010-04-03T01:00:00Z,26.2168,-96.4998,1009.34,11111222 
TABS,ioos:station:wmo:42045:1,2010-04-03T01:30:00Z,26.2168,-96.4998,1009.3,11111222 
TABS,ioos:station:wmo:42045:1,2010-04-03T02:00:00Z,26.2168,-96.4998,1009.51,11111222 
TABS,ioos:station:wmo:42045:1,2010-04-03T02:30:00Z,26.2168,-96.4998,1009.74,11111222 
TABS,ioos:station:wmo:42045:1,2010-04-03T03:00:00Z,26.2168,-96.4998,1010.23,11111222 
TABS,ioos:station:wmo:42045:1,2010-04-03T03:30:00Z,26.2168,-96.4998,1010.8,11111222 
TABS,ioos:station:wmo:42045:1,2010-04-03T04:00:00Z,26.2168,-96.4998,1010.77,11111222 
TABS,ioos:station:wmo:42045:1,2010-04-03T04:30:00Z,26.2168,-96.4998,1010.36,11111222 
TABS,ioos:station:wmo:42045:1,2010-04-03T05:00:00Z,26.2168,-96.4998,1010.51,11111222 
TABS,ioos:station:wmo:42045:1,2010-04-03T05:30:00Z,26.2168,-96.4998,1010.59,11111222 
TABS,ioos:station:wmo:42045:1,2010-04-03T06:00:00Z,26.2168,-96.4998,1010.42,11111222 
TABS,ioos:station:wmo:42045:1,2010-04-03T06:30:00Z,26.2168,-96.4998,1010.69,11111222 
TABS,ioos:station:wmo:42045:1,2010-04-03T07:00:00Z,26.2168,-96.4998,1010.77,11111222 
TABS,ioos:station:wmo:42045:1,2010-04-03T07:30:00Z,26.2168,-96.4998,1011.05,11111222 
TABS,ioos:station:wmo:42045:1,2010-04-03T08:00:00Z,26.2168,-96.4998,1011.34,11111222 
TABS,ioos:station:wmo:42045:1,2010-04-03T08:30:00Z,26.2168,-96.4998,1011.4,11111222 
TABS,ioos:station:wmo:42045:1,2010-04-03T09:00:00Z,26.2168,-96.4998,1011.4,11111222 
TABS,ioos:station:wmo:42045:1,2010-04-03T09:30:00Z,26.2168,-96.4998,1011.2,11111222 
TABS,ioos:station:wmo:42045:1,2010-04-03T10:00:00Z,26.2168,-96.4998,1011.29,11111222 
TABS,ioos:station:wmo:42045:1,2010-04-03T10:30:00Z,26.2168,-96.4998,1011.46,11111222 
TABS,ioos:station:wmo:42045:1,2010-04-03T11:00:00Z,26.2168,-96.4998,1011.75,11111222 
TABS,ioos:station:wmo:42045:1,2010-04-03T11:30:00Z,26.2168,-96.4998,1012.01,11111222 
TABS,ioos:station:wmo:42045:1,2010-04-03T12:00:00Z,26.2168,-96.4998,1012.37,11111222 
TABS,ioos:station:wmo:42045:1,2010-04-03T12:30:00Z,26.2168,-96.4998,1012.67,11111222 
TABS,ioos:station:wmo:42045:1,2010-04-03T13:00:00Z,26.2168,-96.4998,1013.0,11111222 
TABS,ioos:station:wmo:42045:1,2010-04-03T13:30:00Z,26.2168,-96.4998,1013.19,11111222 
TABS,ioos:station:wmo:42045:1,2010-04-03T14:00:00Z,26.2168,-96.4998,1013.17,11111222 
TABS,ioos:station:wmo:42045:1,2010-04-03T14:30:00Z,26.2168,-96.4998,1013.31,11111222 
TABS,ioos:station:wmo:42045:1,2010-04-03T15:00:00Z,26.2168,-96.4998,1013.47,11111222 
TABS,ioos:station:wmo:42045:1,2010-04-03T15:30:00Z,26.2168,-96.4998,1013.5,11111222 
TABS,ioos:station:wmo:42045:1,2010-04-03T16:00:00Z,26.2168,-96.4998,1013.8,11111222 
TABS,ioos:station:wmo:42045:1,2010-04-03T16:30:00Z,26.2168,-96.4998,1013.76,11111222 
TABS,ioos:station:wmo:42045:1,2010-04-03T17:00:00Z,26.2168,-96.4998,1013.85,11111222 
TABS,ioos:station:wmo:42045:1,2010-04-03T17:30:00Z,26.2168,-96.4998,1013.82,11111222 
TABS,ioos:station:wmo:42045:1,2010-04-03T18:00:00Z,26.2168,-96.4998,1013.67,11111222 
TABS,ioos:station:wmo:42045:1,2010-04-03T18:30:00Z,26.2168,-96.4998,1013.31,11111222 
TABS,ioos:station:wmo:42045:1,2010-04-03T19:00:00Z,26.2168,-96.4998,1012.88,11111222 
TABS,ioos:station:wmo:42045:1,2010-04-03T19:30:00Z,26.2168,-96.4998,1012.65,11111222 
TABS,ioos:station:wmo:42045:1,2010-04-03T20:00:00Z,26.2168,-96.4998,1012.39,11111222 
TABS,ioos:station:wmo:42045:1,2010-04-03T20:30:00Z,26.2168,-96.4998,1012.1,11111222 
TABS,ioos:station:wmo:42045:1,2010-04-03T21:00:00Z,26.2168,-96.4998,1012.19,11111222 
TABS,ioos:station:wmo:42045:1,2010-04-03T21:30:00Z,26.2168,-96.4998,1011.95,11111222 
TABS,ioos:station:wmo:42045:1,2010-04-03T22:00:00Z,26.2168,-96.4998,1011.72,11111222 
TABS,ioos:station:wmo:42045:1,2010-04-03T22:30:00Z,26.2168,-96.4998,1011.72,11111222 
TABS,ioos:station:wmo:42045:1,2010-04-03T23:00:00Z,26.2168,-96.4998,1011.85,11111222 
TABS,ioos:station:wmo:42045:1,2010-04-03T23:30:00Z,26.2168,-96.4998,1011.85,11111222 
TABS,ioos:station:wmo:42045:1,2010-04-04T00:00:00Z,26.2168,-96.4998,1011.87,11111222 
TABS,ioos:station:wmo:42045:1,2010-04-04T00:30:00Z,26.2168,-96.4998,1011.81,11111222 
TABS,ioos:station:wmo:42045:1,2010-04-04T01:00:00Z,26.2168,-96.4998,1011.99,11111222 
TABS,ioos:station:wmo:42045:1,2010-04-04T01:30:00Z,26.2168,-96.4998,1012.2,11111222 
TABS,ioos:station:wmo:42045:1,2010-04-04T02:00:00Z,26.2168,-96.4998,1012.35,11111222 
TABS,ioos:station:wmo:42045:1,2010-04-04T02:30:00Z,26.2168,-96.4998,1012.59,11111222 
TABS,ioos:station:wmo:42045:1,2010-04-04T03:00:00Z,26.2168,-96.4998,1012.65,11111222 
TABS,ioos:station:wmo:42045:1,2010-04-04T03:30:00Z,26.2168,-96.4998,1012.78,11111222 
TABS,ioos:station:wmo:42045:1,2010-04-04T04:00:00Z,26.2168,-96.4998,1013.02,11111222 
TABS,ioos:station:wmo:42045:1,2010-04-04T04:30:00Z,26.2168,-96.4998,1013.13,11111222 
TABS,ioos:station:wmo:42045:1,2010-04-04T05:00:00Z,26.2168,-96.4998,1013.03,11111222 
TABS,ioos:station:wmo:42045:1,2010-04-04T05:30:00Z,26.2168,-96.4998,1013.08,11111222 
TABS,ioos:station:wmo:42045:1,2010-04-04T06:00:00Z,26.2168,-96.4998,1013.1,11111222 
TABS,ioos:station:wmo:42045:1,2010-04-04T06:30:00Z,26.2168,-96.4998,1013.09,11111222 
TABS,ioos:station:wmo:42045:1,2010-04-04T07:00:00Z,26.2168,-96.4998,1013.02,11111222 
TABS,ioos:station:wmo:42045:1,2010-04-04T07:30:00Z,26.2168,-96.4998,1012.9,11111222 
TABS,ioos:station:wmo:42045:1,2010-04-04T08:00:00Z,26.2168,-96.4998,1012.64,11111222 
TABS,ioos:station:wmo:42045:1,2010-04-04T08:30:00Z,26.2168,-96.4998,1012.77,11111222 
TABS,ioos:station:wmo:42045:1,2010-04-04T09:00:00Z,26.2168,-96.4998,1012.86,11111222 
TABS,ioos:station:wmo:42045:1,2010-04-04T09:30:00Z,26.2168,-96.4998,1012.76,11111222 
TABS,ioos:station:wmo:42045:1,2010-04-04T10:00:00Z,26.2168,-96.4998,1012.91,11111222 
TABS,ioos:station:wmo:42045:1,2010-04-04T10:30:00Z,26.2168,-96.4998,1013.06,11111222 
TABS,ioos:station:wmo:42045:1,2010-04-04T11:00:00Z,26.2168,-96.4998,1013.04,11111222 
TABS,ioos:station:wmo:42045:1,2010-04-04T11:30:00Z,26.2168,-96.4998,1013.55,11111222 
TABS,ioos:station:wmo:42045:1,2010-04-04T12:00:00Z,26.2168,-96.4998,1013.89,11111222 
TABS,ioos:station:wmo:42045:1,2010-04-04T12:30:00Z,26.2168,-96.4998,1014.34,11111222 
TABS,ioos:station:wmo:42045:1,2010-04-04T13:00:00Z,26.2168,-96.4998,1014.62,11111222 
TABS,ioos:station:wmo:42045:1,2010-04-04T13:30:00Z,26.2168,-96.4998,1015.02,11111222 
TABS,ioos:station:wmo:42045:1,2010-04-04T14:00:00Z,26.2168,-96.4998,1015.2,11111222 
TABS,ioos:station:wmo:42045:1,2010-04-04T14:30:00Z,26.2168,-96.4998,1015.39,11111222 
TABS,ioos:station:wmo:42045:1,2010-04-04T15:00:00Z,26.2168,-96.4998,1015.5,11111222 
TABS,ioos:station:wmo:42045:1,2010-04-04T15:30:00Z,26.2168,-96.4998,1015.47,11111222 
TABS,ioos:station:wmo:42045:1,2010-04-04T16:00:00Z,26.2168,-96.4998,1015.65,11111222 
TABS,ioos:station:wmo:42045:1,2010-04-04T16:30:00Z,26.2168,-96.4998,1015.65,11111222 
TABS,ioos:station:wmo:42045:1,2010-04-04T17:00:00Z,26.2168,-96.4998,1015.56,11111222 
TABS,ioos:station:wmo:42045:1,2010-04-04T17:30:00Z,26.2168,-96.4998,1015.43,11111222 
TABS,ioos:station:wmo:42045:1,2010-04-04T18:00:00Z,26.2168,-96.4998,1015.52,11111222 
TABS,ioos:station:wmo:42045:1,2010-04-04T18:30:00Z,26.2168,-96.4998,1015.14,11111222 
TABS,ioos:station:wmo:42045:1,2010-04-04T19:00:00Z,26.2168,-96.4998,1014.8,11111222 
TABS,ioos:station:wmo:42045:1,2010-04-04T19:30:00Z,26.2168,-96.4998,1014.56,11111222 
TABS,ioos:station:wmo:42045:1,2010-04-04T20:00:00Z,26.2168,-96.4998,1014.16,11111222 
TABS,ioos:station:wmo:42045:1,2010-04-04T20:30:00Z,26.2168,-96.4998,1013.79,11111222 
TABS,ioos:station:wmo:42045:1,2010-04-04T21:00:00Z,26.2168,-96.4998,1013.51,11111222 
TABS,ioos:station:wmo:42045:1,2010-04-04T21:30:00Z,26.2168,-96.4998,1013.27,11111222 
TABS,ioos:station:wmo:42045:1,2010-04-04T22:00:00Z,26.2168,-96.4998,1013.19,11111222 
TABS,ioos:station:wmo:42045:1,2010-04-04T22:30:00Z,26.2168,-96.4998,1012.96,11111222 
TABS,ioos:station:wmo:42045:1,2010-04-04T23:00:00Z,26.2168,-96.4998,1012.86,11111222 
TABS,ioos:station:wmo:42045:1,2010-04-04T23:30:00Z,26.2168,-96.4998,1012.99,11111222 
TABS,ioos:station:wmo:42045:1,2010-04-05T00:00:00Z,26.2168,-96.4998,1013.27,11111222 
TABS,ioos:station:wmo:42045:1,2010-04-05T00:30:00Z,26.2168,-96.4998,1013.34,11111222 
TABS,ioos:station:wmo:42045:1,2010-04-05T01:00:00Z,26.2168,-96.4998,1013.34,11111222 
TABS,ioos:station:wmo:42045:1,2010-04-05T01:30:00Z,26.2168,-96.4998,1013.72,11111222 
TABS,ioos:station:wmo:42045:1,2010-04-05T02:00:00Z,26.2168,-96.4998,1013.88,11111222 
TABS,ioos:station:wmo:42045:1,2010-04-05T02:30:00Z,26.2168,-96.4998,1014.39,11111222 
TABS,ioos:station:wmo:42045:1,2010-04-05T03:00:00Z,26.2168,-96.4998,1015.05,11111222 
TABS,ioos:station:wmo:42045:1,2010-04-05T03:30:00Z,26.2168,-96.4998,1015.28,11111222 
TABS,ioos:station:wmo:42045:1,2010-04-05T04:00:00Z,26.2168,-96.4998,1015.43,11111222 
TABS,ioos:station:wmo:42045:1,2010-04-05T04:30:00Z,26.2168,-96.4998,1015.42,11111222 
TABS,ioos:station:wmo:42045:1,2010-04-05T05:00:00Z,26.2168,-96.4998,1015.22,11111222 
TABS,ioos:station:wmo:42045:1,2010-04-05T05:30:00Z,26.2168,-96.4998,1015.61,11111222 
TABS,ioos:station:wmo:42045:1,2010-04-05T06:00:00Z,26.2168,-96.4998,1015.79,11111222 
TABS,ioos:station:wmo:42045:1,2010-04-05T06:30:00Z,26.2168,-96.4998,1015.56,11111222 
TABS,ioos:station:wmo:42045:1,2010-04-05T07:00:00Z,26.2168,-96.4998,1015.48,11111222 
TABS,ioos:station:wmo:42045:1,2010-04-05T07:30:00Z,26.2168,-96.4998,1015.37,11111222 
TABS,ioos:station:wmo:42045:1,2010-04-05T08:00:00Z,26.2168,-96.4998,1015.06,11111222 
TABS,ioos:station:wmo:42045:1,2010-04-05T08:30:00Z,26.2168,-96.4998,1015.08,11111222 
TABS,ioos:station:wmo:42045:1,2010-04-05T09:00:00Z,26.2168,-96.4998,1014.99,11111222 
TABS,ioos:station:wmo:42045:1,2010-04-05T09:30:00Z,26.2168,-96.4998,1014.93,11111222 
TABS,ioos:station:wmo:42045:1,2010-04-05T10:00:00Z,26.2168,-96.4998,1015.12,11111222 
TABS,ioos:station:wmo:42045:1,2010-04-05T10:30:00Z,26.2168,-96.4998,1015.15,11111222 
TABS,ioos:station:wmo:42045:1,2010-04-05T11:00:00Z,26.2168,-96.4998,1015.51,11111222 
TABS,ioos:station:wmo:42045:1,2010-04-05T11:30:00Z,26.2168,-96.4998,1015.99,11111222 
TABS,ioos:station:wmo:42045:1,2010-04-05T12:00:00Z,26.2168,-96.4998,1016.13,11111222 
TABS,ioos:station:wmo:42045:1,2010-04-05T12:30:00Z,26.2168,-96.4998,1016.61,11111222 
TABS,ioos:station:wmo:42045:1,2010-04-05T13:00:00Z,26.2168,-96.4998,1017.21,11111222 
TABS,ioos:station:wmo:42045:1,2010-04-05T13:30:00Z,26.2168,-96.4998,1017.24,11111222 
TABS,ioos:station:wmo:42045:1,2010-04-05T14:00:00Z,26.2168,-96.4998,1017.48,11111222 
TABS,ioos:station:wmo:42045:1,2010-04-05T14:30:00Z,26.2168,-96.4998,1017.85,11111222 
TABS,ioos:station:wmo:42045:1,2010-04-05T15:00:00Z,26.2168,-96.4998,1017.99,11111222 
TABS,ioos:station:wmo:42045:1,2010-04-05T15:30:00Z,26.2168,-96.4998,1017.83,11111222 
TABS,ioos:station:wmo:42045:1,2010-04-05T16:00:00Z,26.2168,-96.4998,1017.99,11111222 
TABS,ioos:station:wmo:42045:1,2010-04-05T16:30:00Z,26.2168,-96.4998,1018.04,11111222 
TABS,ioos:station:wmo:42045:1,2010-04-05T17:00:00Z,26.2168,-96.4998,1017.9,11111222 
TABS,ioos:station:wmo:42045:1,2010-04-05T17:30:00Z,26.2168,-96.4998,1017.68,11111222 
TABS,ioos:station:wmo:42045:1,2010-04-05T18:00:00Z,26.2168,-96.4998,1017.31,11111222 
TABS,ioos:station:wmo:42045:1,2010-04-05T18:30:00Z,26.2168,-96.4998,1017.21,11111222 
TABS,ioos:station:wmo:42045:1,2010-04-05T19:00:00Z,26.2168,-96.4998,1017.19,11111222 
TABS,ioos:station:wmo:42045:1,2010-04-05T19:30:00Z,26.2168,-96.4998,1016.83,11111222 
TABS,ioos:station:wmo:42045:1,2010-04-05T20:00:00Z,26.2168,-96.4998,1016.53,11111222 
TABS,ioos:station:wmo:42045:1,2010-04-05T20:30:00Z,26.2168,-96.4998,1015.88,11111222 
TABS,ioos:station:wmo:42045:1,2010-04-05T21:00:00Z,26.2168,-96.4998,1015.63,11111222 
TABS,ioos:station:wmo:42045:1,2010-04-05T21:30:00Z,26.2168,-96.4998,1015.27,11111222 
TABS,ioos:station:wmo:42045:1,2010-04-05T22:00:00Z,26.2168,-96.4998,1015.0,11111222 
TABS,ioos:station:wmo:42045:1,2010-04-05T22:30:00Z,26.2168,-96.4998,1014.81,11111222 
TABS,ioos:station:wmo:42045:1,2010-04-05T23:00:00Z,26.2168,-96.4998,1014.78,11111222 
TABS,ioos:station:wmo:42045:1,2010-04-05T23:30:00Z,26.2168,-96.4998,1014.72,11111222 
TABS,ioos:station:wmo:42045:1,2010-04-06T00:00:00Z,26.2168,-96.4998,1014.57,11111222 
TABS,ioos:station:wmo:42045:1,2010-04-06T00:30:00Z,26.2168,-96.4998,1014.69,11111222 
TABS,ioos:station:wmo:42045:1,2010-04-06T01:00:00Z,26.2168,-96.4998,1014.69,11111222 
TABS,ioos:station:wmo:42045:1,2010-04-06T01:30:00Z,26.2168,-96.4998,1014.77,11111222 
TABS,ioos:station:wmo:42045:1,2010-04-06T02:00:00Z,26.2168,-96.4998,1014.99,11111222 
TABS,ioos:station:wmo:42045:1,2010-04-06T02:30:00Z,26.2168,-96.4998,1015.25,11111222 
TABS,ioos:station:wmo:42045:1,2010-04-06T03:00:00Z,26.2168,-96.4998,1015.63,11111222 
TABS,ioos:station:wmo:42045:1,2010-04-06T03:30:00Z,26.2168,-96.4998,1015.45,11111222 
TABS,ioos:station:wmo:42045:1,2010-04-06T04:00:00Z,26.2168,-96.4998,1015.64,11111222 
TABS,ioos:station:wmo:42045:1,2010-04-06T04:30:00Z,26.2168,-96.4998,1015.29,11111222 
TABS,ioos:station:wmo:42045:1,2010-04-06T05:00:00Z,26.2168,-96.4998,1015.03,11111222 
TABS,ioos:station:wmo:42045:1,2010-04-06T05:30:00Z,26.2168,-96.4998,1014.77,11111222 
TABS,ioos:station:wmo:42045:1,2010-04-06T06:00:00Z,26.2168,-96.4998,1014.65,11111222 
TABS,ioos:station:wmo:42045:1,2010-04-06T06:30:00Z,26.2168,-96.4998,1014.62,11111222 
TABS,ioos:station:wmo:42045:1,2010-04-06T07:00:00Z,26.2168,-96.4998,1014.5,11111222 
TABS,ioos:station:wmo:42045:1,2010-04-06T07:30:00Z,26.2168,-96.4998,1014.05,11111222 
TABS,ioos:station:wmo:42045:1,2010-04-06T08:00:00Z,26.2168,-96.4998,1013.83,11111222 
TABS,ioos:station:wmo:42045:1,2010-04-06T08:30:00Z,26.2168,-96.4998,1013.37,11111222 
TABS,ioos:station:wmo:42045:1,2010-04-06T09:00:00Z,26.2168,-96.4998,1012.87,11111222 
TABS,ioos:station:wmo:42045:1,2010-04-06T09:30:00Z,26.2168,-96.4998,1012.91,11111222 
TABS,ioos:station:wmo:42045:1,2010-04-06T10:00:00Z,26.2168,-96.4998,1012.82,11111222 
TABS,ioos:station:wmo:42045:1,2010-04-06T10:30:00Z,26.2168,-96.4998,1012.76,11111222 
TABS,ioos:station:wmo:42045:1,2010-04-06T11:00:00Z,26.2168,-96.4998,1012.79,11111222 
TABS,ioos:station:wmo:42045:1,2010-04-06T11:30:00Z,26.2168,-96.4998,1012.72,11111222 
TABS,ioos:station:wmo:42045:1,2010-04-06T12:00:00Z,26.2168,-96.4998,1012.93,11111222 
TABS,ioos:station:wmo:42045:1,2010-04-06T12:30:00Z,26.2168,-96.4998,1013.32,11111222 
TABS,ioos:station:wmo:42045:1,2010-04-06T13:00:00Z,26.2168,-96.4998,1013.49,11111222 
TABS,ioos:station:wmo:42045:1,2010-04-06T13:30:00Z,26.2168,-96.4998,1013.71,11111222 
TABS,ioos:station:wmo:42045:1,2010-04-06T14:00:00Z,26.2168,-96.4998,1013.48,11111222 
TABS,ioos:station:wmo:42045:1,2010-04-06T14:30:00Z,26.2168,-96.4998,1013.2,11111222 
TABS,ioos:station:wmo:42045:1,2010-04-06T15:00:00Z,26.2168,-96.4998,1013.14,11111222 
TABS,ioos:station:wmo:42045:1,2010-04-06T15:30:00Z,26.2168,-96.4998,1013.39,11111222 
TABS,ioos:station:wmo:42045:1,2010-04-06T16:00:00Z,26.2168,-96.4998,1013.5,11111222 
TABS,ioos:station:wmo:42045:1,2010-04-06T16:30:00Z,26.2168,-96.4998,1013.59,11111222 
TABS,ioos:station:wmo:42045:1,2010-04-06T17:00:00Z,26.2168,-96.4998,1013.11,11111222 
TABS,ioos:station:wmo:42045:1,2010-04-06T17:30:00Z,26.2168,-96.4998,1012.65,11111222 
TABS,ioos:station:wmo:42045:1,2010-04-06T18:00:00Z,26.2168,-96.4998,1012.52,11111222 
TABS,ioos:station:wmo:42045:1,2010-04-06T18:30:00Z,26.2168,-96.4998,1011.86,11111222 